sat.trackr.live / text

‹ back to catalog

STARLINK-32456

NORAD 62041 · 2024-216K

PAYLOAD ACTIVE UNKNOWN

§ Identity

Operator
Country
US
Launch date
2024-11-21
Launch site
AFETR
Launch vehicle
Mass (kg)
RCS (m²)

Purposes: comms

External: N2YO · Heavens-Above · Gunter

§ Orbital elements

Epoch: 2026-05-24T11:29:09.054528Z

Period
94.27 min
Inclination
42.9964°
Eccentricity
0.0001854
Mean motion
15.27556057 rev/d
Perigee alt
481.8 km
Apogee alt
484.4 km
Semi-major
6,861.3 km
B*
9.2931e-5
RAAN
188.5580°
Arg perigee
271.2071°
Mean anomaly
88.8568°
Rev number
8,546

§ Raw data

STARLINK-324561 62041U 24216K   26144.47857702  .00002294  00000+0  92931-4 0  99992 62041  42.9964 188.5580 0001854 271.2071  88.8568 15.27556057 85461

JSON: /api/v1/satellites/62041 · /tle

For live sub-satellite position, see the globe view (requires WebGL).

§ Visibility from observer

Set your observer location to see the next 7 days of passes ≥ 10°. The values pass through the URL so the page stays shareable.

No JS? Fill the form by hand. The geolocation button needs JavaScript.